Time,TemperatureF,DewpointF,PressureIn,WindDirection,WindDirectionDegrees,WindSpeedMPH,WindSpeedGustMPH,Humidity,HourlyPrecipIn,Conditions,Clouds,dailyrainin,SoftwareType,DateUTC
2013-08-20 00:01:00,67.0,61.0,29.99,ESE,112,0.0,0.0,81,0.00,,,0.00,WUHU21636XXSP,2013-08-20 05:01:00,
2013-08-20 00:06:00,66.8,60.8,30.00,ESE,112,0.0,0.0,81,0.00,,,0.00,WUHU21636XXSP,2013-08-20 05:06:00,
2013-08-20 00:11:00,66.8,60.8,29.99,ESE,112,0.0,0.0,81,0.00,,,0.00,WUHU21636XXSP,2013-08-20 05:11:00,
2013-08-20 00:16:00,66.7,60.7,30.00,ESE,112,0.0,0.0,81,0.00,,,0.00,WUHU21636XXSP,2013-08-20 05:16:00,
2013-08-20 00:21:00,66.5,60.5,30.00,ESE,112,0.0,0.0,81,0.00,,,0.00,WUHU21636XXSP,2013-08-20 05:21:00,
2013-08-20 00:26:00,66.5,60.5,30.00,ESE,112,0.0,0.0,81,0.00,,,0.00,WUHU21636XXSP,2013-08-20 05:26:00,
2013-08-20 00:31:00,66.0,60.1,30.00,ESE,112,0.0,0.0,81,0.00,,,0.00,WUHU21636XXSP,2013-08-20 05:31:00,
2013-08-20 00:36:00,66.0,60.1,30.00,ESE,112,0.0,0.0,81,0.00,,,0.00,WUHU21636XXSP,2013-08-20 05:36:00,
2013-08-20 00:41:00,65.8,59.9,30.00,ESE,112,0.0,0.0,81,0.00,,,0.00,WUHU21636XXSP,2013-08-20 05:41:00,
2013-08-20 00:46:00,65.8,59.9,29.99,ESE,112,0.0,0.0,81,0.00,,,0.00,WUHU21636XXSP,2013-08-20 05:46:00,
2013-08-20 00:51:00,65.8,60.2,29.99,ESE,112,0.0,0.0,82,0.00,,,0.00,WUHU21636XXSP,2013-08-20 05:51:00,
2013-08-20 00:56:00,65.7,60.1,29.99,ESE,112,0.0,0.0,82,0.00,,,0.00,WUHU21636XXSP,2013-08-20 05:56:00,
2013-08-20 01:01:00,65.7,60.1,29.99,ESE,112,0.0,0.0,82,0.00,,,0.00,WUHU21636XXSP,2013-08-20 06:01:00,
2013-08-20 01:06:00,65.5,59.9,29.99,ESE,112,0.0,0.0,82,0.00,,,0.00,WUHU21636XXSP,2013-08-20 06:06:00,
2013-08-20 01:11:00,65.5,59.9,29.99,ESE,112,0.0,0.0,82,0.00,,,0.00,WUHU21636XXSP,2013-08-20 06:11:00,
2013-08-20 01:16:00,65.3,59.7,29.99,ESE,112,0.0,0.0,82,0.00,,,0.00,WUHU21636XXSP,2013-08-20 06:16:00,
2013-08-20 01:21:00,65.3,59.7,29.99,ESE,112,0.0,0.0,82,0.00,,,0.00,WUHU21636XXSP,2013-08-20 06:21:00,
2013-08-20 01:26:00,65.1,59.5,29.99,ESE,112,0.0,0.0,82,0.00,,,0.00,WUHU21636XXSP,2013-08-20 06:26:00,
2013-08-20 01:31:00,65.1,59.5,29.99,ESE,112,0.0,0.0,82,0.00,,,0.00,WUHU21636XXSP,2013-08-20 06:31:00,
2013-08-20 01:36:00,65.1,59.5,29.99,ESE,112,0.0,0.0,82,0.00,,,0.00,WUHU21636XXSP,2013-08-20 06:36:00,
2013-08-20 01:41:00,64.9,59.3,29.99,ESE,112,0.0,0.0,82,0.00,,,0.00,WUHU21636XXSP,2013-08-20 06:41:00,
2013-08-20 01:46:00,64.9,59.3,29.99,ESE,112,0.0,0.0,82,0.00,,,0.00,WUHU21636XXSP,2013-08-20 06:46:00,
2013-08-20 01:51:00,64.9,59.3,29.99,ESE,112,0.0,0.0,82,0.00,,,0.00,WUHU21636XXSP,2013-08-20 06:51:00,
2013-08-20 01:56:00,64.8,59.2,29.99,ESE,112,0.0,0.0,82,0.00,,,0.00,WUHU21636XXSP,2013-08-20 06:56:00,
2013-08-20 02:01:00,64.8,59.2,29.99,ESE,112,0.0,0.0,82,0.00,,,0.00,WUHU21636XXSP,2013-08-20 07:01:00,
2013-08-20 02:06:00,64.8,59.2,29.99,ESE,112,0.0,0.0,82,0.00,,,0.00,WUHU21636XXSP,2013-08-20 07:06:00,
2013-08-20 02:11:00,64.8,59.5,29.99,ESE,112,0.0,0.0,83,0.00,,,0.00,WUHU21636XXSP,2013-08-20 07:11:00,
2013-08-20 02:16:00,64.8,59.5,29.99,ESE,112,0.0,0.0,83,0.00,,,0.00,WUHU21636XXSP,2013-08-20 07:16:00,
2013-08-20 02:21:00,64.8,59.5,29.99,ESE,112,0.0,0.0,83,0.00,,,0.00,WUHU21636XXSP,2013-08-20 07:21:00,
2013-08-20 02:26:00,64.6,59.3,29.98,ESE,112,0.0,0.0,83,0.00,,,0.00,WUHU21636XXSP,2013-08-20 07:26:00,
2013-08-20 02:31:00,64.6,59.3,29.99,ESE,112,0.0,0.0,83,0.00,,,0.00,WUHU21636XXSP,2013-08-20 07:31:00,
2013-08-20 02:36:00,64.6,59.3,29.99,ESE,112,0.0,0.0,83,0.00,,,0.00,WUHU21636XXSP,2013-08-20 07:36:00,
2013-08-20 02:41:00,64.4,59.1,29.98,ESE,112,0.0,0.0,83,0.00,,,0.00,WUHU21636XXSP,2013-08-20 07:41:00,
2013-08-20 02:46:00,64.4,59.1,29.98,ESE,112,0.0,0.0,83,0.00,,,0.00,WUHU21636XXSP,2013-08-20 07:46:00,
2013-08-20 02:51:00,64.4,59.1,29.98,ESE,112,0.0,0.0,83,0.00,,,0.00,WUHU21636XXSP,2013-08-20 07:51:00,
2013-08-20 02:56:00,64.2,58.9,29.98,ESE,112,0.0,0.0,83,0.00,,,0.00,WUHU21636XXSP,2013-08-20 07:56:00,
2013-08-20 03:01:00,64.2,58.9,29.98,ESE,112,0.0,0.0,83,0.00,,,0.00,WUHU21636XXSP,2013-08-20 08:01:00,
2013-08-20 03:06:00,64.2,58.9,29.99,ESE,112,0.0,0.0,83,0.00,,,0.00,WUHU21636XXSP,2013-08-20 08:06:00,
2013-08-20 03:11:00,64.2,58.9,29.99,ESE,112,0.0,0.0,83,0.00,,,0.00,WUHU21636XXSP,2013-08-20 08:11:00,
2013-08-20 03:16:00,64.2,58.9,29.99,ESE,112,0.0,0.0,83,0.00,,,0.00,WUHU21636XXSP,2013-08-20 08:16:00,
2013-08-20 03:21:00,64.2,58.9,29.99,ESE,112,0.0,0.0,83,0.00,,,0.00,WUHU21636XXSP,2013-08-20 08:21:00,
2013-08-20 03:26:00,63.9,58.7,29.98,ESE,112,0.0,0.0,83,0.00,,,0.00,WUHU21636XXSP,2013-08-20 08:26:00,
2013-08-20 03:31:00,63.9,58.7,29.98,East,90,0.0,0.0,83,0.00,,,0.00,WUHU21636XXSP,2013-08-20 08:31:00,
2013-08-20 03:36:00,63.9,58.7,29.98,East,90,0.0,0.0,83,0.00,,,0.00,WUHU21636XXSP,2013-08-20 08:36:00,
2013-08-20 03:41:00,63.9,58.7,29.98,East,90,0.0,0.0,83,0.00,,,0.00,WUHU21636XXSP,2013-08-20 08:41:00,
2013-08-20 03:46:00,63.9,58.7,29.98,East,90,0.0,0.0,83,0.00,,,0.00,WUHU21636XXSP,2013-08-20 08:46:00,
2013-08-20 03:51:00,63.9,58.7,29.98,East,90,0.0,0.0,83,0.00,,,0.00,WUHU21636XXSP,2013-08-20 08:51:00,
2013-08-20 03:56:00,63.9,58.7,29.98,East,90,0.0,0.0,83,0.00,,,0.00,WUHU21636XXSP,2013-08-20 08:56:00,
2013-08-20 04:01:00,63.9,58.7,29.98,ENE,67,0.0,0.0,83,0.00,,,0.00,WUHU21636XXSP,2013-08-20 09:01:00,
2013-08-20 04:06:00,63.9,59.0,29.98,NE,45,0.0,0.0,84,0.00,,,0.00,WUHU21636XXSP,2013-08-20 09:06:00,
2013-08-20 04:11:00,63.8,58.9,29.98,East,90,0.0,0.0,84,0.00,,,0.00,WUHU21636XXSP,2013-08-20 09:11:00,
2013-08-20 04:16:00,63.8,58.9,29.98,East,90,0.0,0.0,84,0.00,,,0.00,WUHU21636XXSP,2013-08-20 09:16:00,
2013-08-20 04:21:00,63.6,58.7,29.98,East,90,0.0,0.0,84,0.00,,,0.00,WUHU21636XXSP,2013-08-20 09:21:00,
2013-08-20 04:26:00,63.8,58.9,29.98,ESE,112,0.0,0.0,84,0.00,,,0.00,WUHU21636XXSP,2013-08-20 09:26:00,
2013-08-20 04:31:00,63.8,58.9,29.98,NE,45,0.0,0.0,84,0.00,,,0.00,WUHU21636XXSP,2013-08-20 09:31:00,
2013-08-20 04:36:00,63.8,58.9,29.98,East,90,0.0,0.0,84,0.00,,,0.00,WUHU21636XXSP,2013-08-20 09:36:00,
2013-08-20 04:41:00,63.8,58.9,29.98,East,90,0.0,0.0,84,0.00,,,0.00,WUHU21636XXSP,2013-08-20 09:41:00,
2013-08-20 04:46:00,63.9,59.0,29.98,NNE,22,0.0,0.0,84,0.00,,,0.00,WUHU21636XXSP,2013-08-20 09:46:00,
2013-08-20 04:51:00,63.9,59.0,29.98,East,90,0.0,0.0,84,0.00,,,0.00,WUHU21636XXSP,2013-08-20 09:51:00,
2013-08-20 04:56:00,63.9,59.0,29.98,NE,45,0.0,0.0,84,0.00,,,0.00,WUHU21636XXSP,2013-08-20 09:56:00,
2013-08-20 05:02:00,63.9,59.0,29.98,NE,45,0.0,0.0,84,0.00,,,0.00,WUHU21636XXSP,2013-08-20 10:02:00,
2013-08-20 05:09:00,63.9,59.0,29.99,ESE,112,0.0,0.0,84,0.00,,,0.00,WUHU21636XXSP,2013-08-20 10:09:00,
2013-08-20 05:15:00,64.2,59.2,29.99,ESE,112,0.0,0.0,84,0.00,,,0.00,WUHU21636XXSP,2013-08-20 10:15:00,
2013-08-20 05:20:00,64.4,59.5,29.99,NE,45,0.0,0.0,84,0.00,,,0.00,WUHU21636XXSP,2013-08-20 10:20:00,
2013-08-20 05:27:00,64.8,59.9,29.99,NE,45,0.0,0.0,84,0.00,,,0.00,WUHU21636XXSP,2013-08-20 10:27:00,
2013-08-20 05:33:00,64.9,60.0,29.99,SE,135,0.0,0.0,84,0.00,,,0.00,WUHU21636XXSP,2013-08-20 10:33:00,
2013-08-20 05:38:00,64.9,60.0,29.99,SE,135,0.0,0.0,84,0.00,,,0.00,WUHU21636XXSP,2013-08-20 10:38:00,
2013-08-20 05:43:00,64.9,60.0,29.99,SE,135,0.0,0.0,84,0.00,,,0.00,WUHU21636XXSP,2013-08-20 10:43:00,
2013-08-20 05:48:00,64.9,60.0,29.99,SE,135,0.0,0.0,84,0.00,,,0.00,WUHU21636XXSP,2013-08-20 10:48:00,
2013-08-20 05:53:00,64.9,60.0,29.99,NNE,22,0.0,0.0,84,0.00,,,0.00,WUHU21636XXSP,2013-08-20 10:53:00,
2013-08-20 05:58:00,64.9,60.0,29.99,East,90,0.0,0.0,84,0.00,,,0.00,WUHU21636XXSP,2013-08-20 10:58:00,
2013-08-20 06:03:00,65.1,60.2,29.99,SE,135,0.0,0.0,84,0.00,,,0.00,WUHU21636XXSP,2013-08-20 11:03:00,
2013-08-20 06:08:00,65.3,60.4,29.99,SE,135,0.0,0.0,84,0.00,,,0.00,WUHU21636XXSP,2013-08-20 11:08:00,
2013-08-20 06:13:00,65.1,60.2,29.99,SE,135,0.0,0.0,84,0.00,,,0.00,WUHU21636XXSP,2013-08-20 11:13:00,
2013-08-20 06:18:00,65.1,60.2,29.99,SE,135,0.0,0.0,84,0.00,,,0.00,WUHU21636XXSP,2013-08-20 11:18:00,
2013-08-20 06:23:00,65.1,60.2,30.00,SE,135,0.0,0.0,84,0.00,,,0.00,WUHU21636XXSP,2013-08-20 11:23:00,
2013-08-20 06:28:00,64.9,60.0,30.00,SE,135,0.0,0.0,84,0.00,,,0.00,WUHU21636XXSP,2013-08-20 11:28:00,
2013-08-20 06:33:00,64.9,60.0,30.00,SE,135,0.0,0.0,84,0.00,,,0.00,WUHU21636XXSP,2013-08-20 11:33:00,
2013-08-20 06:38:00,64.9,60.0,30.00,SE,135,0.0,0.0,84,0.00,,,0.00,WUHU21636XXSP,2013-08-20 11:38:00,
2013-08-20 06:43:00,64.8,59.9,30.00,SE,135,0.0,0.0,84,0.00,,,0.00,WUHU21636XXSP,2013-08-20 11:43:00,
2013-08-20 06:48:00,64.8,59.9,30.00,SE,135,0.0,0.0,84,0.00,,,0.00,WUHU21636XXSP,2013-08-20 11:48:00,
2013-08-20 06:53:00,64.8,59.9,30.00,SE,135,0.0,0.0,84,0.00,,,0.00,WUHU21636XXSP,2013-08-20 11:53:00,
2013-08-20 06:58:00,64.8,59.9,30.00,SE,135,0.0,0.0,84,0.00,,,0.00,WUHU21636XXSP,2013-08-20 11:58:00,
2013-08-20 07:03:00,64.6,59.7,30.00,SE,135,0.0,0.0,84,0.00,,,0.00,WUHU21636XXSP,2013-08-20 12:03:00,
2013-08-20 07:08:00,64.8,59.9,30.01,SE,135,0.8,0.8,84,0.00,,,0.00,WUHU21636XXSP,2013-08-20 12:08:00,
2013-08-20 07:13:00,64.9,60.0,30.00,ENE,67,0.0,0.8,84,0.00,,,0.00,WUHU21636XXSP,2013-08-20 12:13:00,
2013-08-20 07:18:00,64.9,60.0,30.01,ENE,67,0.0,0.8,84,0.00,,,0.00,WUHU21636XXSP,2013-08-20 12:18:00,
2013-08-20 07:23:00,64.9,60.0,30.00,NNE,22,0.0,0.0,84,0.00,,,0.00,WUHU21636XXSP,2013-08-20 12:23:00,
2013-08-20 07:28:00,65.1,60.2,30.01,NNE,22,0.0,0.0,84,0.00,,,0.00,WUHU21636XXSP,2013-08-20 12:28:00,
2013-08-20 07:33:00,65.1,60.2,30.01,ESE,112,0.0,0.0,84,0.00,,,0.00,WUHU21636XXSP,2013-08-20 12:33:00,
2013-08-20 07:38:00,65.5,60.6,30.01,ESE,112,0.0,0.0,84,0.00,,,0.00,WUHU21636XXSP,2013-08-20 12:38:00,
2013-08-20 07:43:00,65.8,60.9,30.01,South,180,0.0,0.0,84,0.00,,,0.00,WUHU21636XXSP,2013-08-20 12:43:00,
2013-08-20 07:48:00,66.5,61.2,30.01,West,270,0.0,0.0,83,0.00,,,0.00,WUHU21636XXSP,2013-08-20 12:48:00,
2013-08-20 07:53:00,66.8,61.5,30.01,West,270,0.0,0.0,83,0.00,,,0.00,WUHU21636XXSP,2013-08-20 12:53:00,
2013-08-20 07:58:00,67.0,61.4,30.01,West,270,0.0,0.0,82,0.00,,,0.00,WUHU21636XXSP,2013-08-20 12:58:00,
2013-08-20 08:03:00,67.4,61.8,30.01,West,270,0.0,0.0,82,0.00,,,0.00,WUHU21636XXSP,2013-08-20 13:03:00,
2013-08-20 08:08:00,67.6,62.0,30.01,West,270,0.0,0.0,82,0.00,,,0.00,WUHU21636XXSP,2013-08-20 13:08:00,
2013-08-20 08:13:00,67.7,62.1,30.01,West,270,0.0,0.0,82,0.00,,,0.00,WUHU21636XXSP,2013-08-20 13:13:00,
2013-08-20 08:18:00,67.7,61.7,30.01,West,270,0.0,0.0,81,0.00,,,0.00,WUHU21636XXSP,2013-08-20 13:18:00,
2013-08-20 08:23:00,67.9,62.0,30.01,West,270,0.0,0.0,81,0.00,,,0.00,WUHU21636XXSP,2013-08-20 13:23:00,
2013-08-20 08:28:00,67.9,62.3,30.01,West,270,0.0,0.0,82,0.00,,,0.00,WUHU21636XXSP,2013-08-20 13:28:00,
2013-08-20 08:33:00,68.1,62.5,30.01,West,270,0.0,0.0,82,0.00,,,0.00,WUHU21636XXSP,2013-08-20 13:33:00,
2013-08-20 08:38:00,68.4,62.7,30.01,West,270,0.0,0.0,82,0.00,,,0.00,WUHU21636XXSP,2013-08-20 13:38:00,
2013-08-20 08:43:00,68.4,62.7,30.01,West,270,0.0,0.0,82,0.00,,,0.00,WUHU21636XXSP,2013-08-20 13:43:00,
2013-08-20 08:48:00,68.4,62.4,30.01,West,270,0.0,0.0,81,0.00,,,0.00,WUHU21636XXSP,2013-08-20 13:48:00,
2013-08-20 08:53:00,68.7,62.7,30.01,West,270,0.0,0.0,81,0.00,,,0.00,WUHU21636XXSP,2013-08-20 13:53:00,
2013-08-20 08:58:00,68.9,62.9,30.01,WNW,292,0.0,0.0,81,0.00,,,0.00,WUHU21636XXSP,2013-08-20 13:58:00,
2013-08-20 09:03:00,69.6,63.6,30.01,West,270,5.8,5.8,81,0.00,,,0.00,WUHU21636XXSP,2013-08-20 14:03:00,
2013-08-20 09:08:00,69.8,63.1,30.01,WNW,292,0.0,5.8,79,0.00,,,0.00,WUHU21636XXSP,2013-08-20 14:08:00,
2013-08-20 09:13:00,70.0,63.3,30.01,WNW,292,0.0,5.8,79,0.00,,,0.00,WUHU21636XXSP,2013-08-20 14:13:00,
2013-08-20 09:18:00,70.5,63.4,30.01,WNW,292,3.0,3.0,78,0.00,,,0.00,WUHU21636XXSP,2013-08-20 14:18:00,
2013-08-20 09:23:00,70.8,63.7,30.01,WNW,292,0.0,3.0,78,0.00,,,0.00,WUHU21636XXSP,2013-08-20 14:23:00,
2013-08-20 09:28:00,70.8,63.7,30.00,SW,225,0.0,3.0,78,0.00,,,0.00,WUHU21636XXSP,2013-08-20 14:28:00,
2013-08-20 09:33:00,71.2,64.1,30.01,West,270,0.0,0.0,78,0.00,,,0.00,WUHU21636XXSP,2013-08-20 14:33:00,
2013-08-20 09:38:00,71.5,64.7,30.01,West,270,0.0,0.0,79,0.00,,,0.00,WUHU21636XXSP,2013-08-20 14:38:00,
2013-08-20 09:43:00,71.5,64.4,30.00,West,270,4.4,4.4,78,0.00,,,0.00,WUHU21636XXSP,2013-08-20 14:43:00,
2013-08-20 09:48:00,71.7,64.6,30.00,West,270,0.0,4.4,78,0.00,,,0.00,WUHU21636XXSP,2013-08-20 14:48:00,
2013-08-20 09:53:00,72.1,65.0,30.01,West,270,0.0,0.0,78,0.00,,,0.00,WUHU21636XXSP,2013-08-20 14:53:00,
2013-08-20 09:58:00,72.3,65.2,30.00,WSW,247,0.0,0.0,78,0.00,,,0.00,WUHU21636XXSP,2013-08-20 14:58:00,
2013-08-20 10:03:00,72.7,65.2,30.00,WNW,292,0.0,0.0,77,0.00,,,0.00,WUHU21636XXSP,2013-08-20 15:03:00,
2013-08-20 10:08:00,73.3,65.8,30.00,WNW,292,0.0,0.0,77,0.00,,,0.00,WUHU21636XXSP,2013-08-20 15:08:00,
2013-08-20 10:13:00,73.4,65.5,30.00,WNW,292,0.0,0.0,76,0.00,,,0.00,WUHU21636XXSP,2013-08-20 15:13:00,
2013-08-20 10:18:00,73.4,65.5,30.00,WNW,292,0.0,0.0,76,0.00,,,0.00,WUHU21636XXSP,2013-08-20 15:18:00,
2013-08-20 10:23:00,73.8,66.3,30.00,NNW,337,0.0,0.0,77,0.00,,,0.00,WUHU21636XXSP,2013-08-20 15:23:00,
2013-08-20 10:28:00,74.0,66.1,30.00,WNW,292,0.0,0.0,76,0.00,,,0.00,WUHU21636XXSP,2013-08-20 15:28:00,
2013-08-20 10:33:00,74.6,66.6,30.00,WNW,292,0.0,0.0,76,0.00,,,0.00,WUHU21636XXSP,2013-08-20 15:33:00,
2013-08-20 10:38:00,75.0,67.0,29.99,NW,315,0.0,0.0,76,0.00,,,0.00,WUHU21636XXSP,2013-08-20 15:38:00,
2013-08-20 10:43:00,75.0,67.0,30.00,WSW,247,0.8,0.8,76,0.00,,,0.00,WUHU21636XXSP,2013-08-20 15:43:00,
2013-08-20 10:48:00,75.2,67.2,30.00,West,270,0.0,0.8,76,0.00,,,0.00,WUHU21636XXSP,2013-08-20 15:48:00,
2013-08-20 10:53:00,75.3,67.0,30.00,WSW,247,2.6,2.6,75,0.00,,,0.00,WUHU21636XXSP,2013-08-20 15:53:00,
2013-08-20 10:58:00,76.1,67.4,30.00,WNW,292,4.8,4.8,74,0.00,,,0.00,WUHU21636XXSP,2013-08-20 15:58:00,
2013-08-20 11:03:00,76.2,67.1,30.00,ESE,112,0.0,4.8,73,0.00,,,0.00,WUHU21636XXSP,2013-08-20 16:03:00,
2013-08-20 11:08:00,76.9,67.7,29.99,West,270,6.6,6.6,73,0.00,,,0.00,WUHU21636XXSP,2013-08-20 16:08:00,
2013-08-20 11:13:00,77.1,67.5,29.99,WNW,292,0.0,6.6,72,0.00,,,0.00,WUHU21636XXSP,2013-08-20 16:13:00,
2013-08-20 11:18:00,77.4,67.8,29.99,NW,315,0.0,6.6,72,0.00,,,0.00,WUHU21636XXSP,2013-08-20 16:18:00,
2013-08-20 11:23:00,77.8,67.9,29.99,SW,225,0.0,1.6,71,0.00,,,0.00,WUHU21636XXSP,2013-08-20 16:23:00,
2013-08-20 11:28:00,78.1,68.2,29.99,SSE,157,6.2,6.2,71,0.00,,,0.00,WUHU21636XXSP,2013-08-20 16:28:00,
2013-08-20 11:33:00,78.3,68.0,29.99,WNW,292,0.0,6.2,70,0.00,,,0.00,WUHU21636XXSP,2013-08-20 16:33:00,
2013-08-20 11:38:00,79.1,68.2,30.00,SSE,167,3.5,4.8,69,0.00,,,0.00,WUHU21636XXSP,2013-08-20 16:38:00,
2013-08-20 11:43:00,79.3,68.0,30.00,West,266,3.3,12.8,68,0.00,,,0.00,WUHU21636XXSP,2013-08-20 16:43:00,
2013-08-20 11:48:00,79.7,69.3,30.00,SW,225,9.2,12.8,70,0.00,,,0.00,WUHU21636XXSP,2013-08-20 16:48:00,
2013-08-20 11:53:00,79.9,69.1,29.99,SSW,202,0.0,9.2,69,0.00,,,0.00,WUHU21636XXSP,2013-08-20 16:53:00,
2013-08-20 11:58:00,80.2,68.9,29.99,East,90,5.2,9.2,68,0.00,,,0.00,WUHU21636XXSP,2013-08-20 16:58:00,
2013-08-20 12:03:00,81.0,69.6,29.99,NE,45,0.0,5.2,68,0.00,,,0.00,WUHU21636XXSP,2013-08-20 17:03:00,
2013-08-20 12:08:00,81.2,70.3,29.99,SSE,157,0.0,5.2,69,0.00,,,0.00,WUHU21636XXSP,2013-08-20 17:08:00,
2013-08-20 12:13:00,81.8,70.0,29.99,West,270,1.6,1.6,67,0.00,,,0.00,WUHU21636XXSP,2013-08-20 17:13:00,
2013-08-20 12:18:00,81.9,70.1,29.99,West,270,5.8,5.8,67,0.00,,,0.00,WUHU21636XXSP,2013-08-20 17:18:00,
2013-08-20 12:23:00,82.1,69.4,29.99,SE,135,0.0,5.8,65,0.00,,,0.00,WUHU21636XXSP,2013-08-20 17:23:00,
2013-08-20 12:28:00,82.1,69.0,29.99,WNW,285,8.2,9.2,64,0.00,,,0.00,WUHU21636XXSP,2013-08-20 17:28:00,
2013-08-20 12:33:00,82.3,69.6,29.99,SW,225,5.2,28.0,65,0.00,,,0.00,WUHU21636XXSP,2013-08-20 17:33:00,
2013-08-20 12:38:00,82.5,69.4,29.98,NE,45,1.2,28.0,64,0.00,,,0.00,WUHU21636XXSP,2013-08-20 17:38:00,
2013-08-20 12:43:00,82.7,70.0,29.98,NNW,337,2.2,5.2,65,0.00,,,0.00,WUHU21636XXSP,2013-08-20 17:43:00,
2013-08-20 12:48:00,82.8,69.7,29.98,NW,315,4.0,4.0,64,0.00,,,0.00,WUHU21636XXSP,2013-08-20 17:48:00,
2013-08-20 12:53:00,83.1,69.4,29.98,West,270,0.8,8.4,63,0.00,,,0.00,WUHU21636XXSP,2013-08-20 17:53:00,
2013-08-20 12:58:00,83.1,69.4,29.98,NNE,22,0.0,8.4,63,0.00,,,0.00,WUHU21636XXSP,2013-08-20 17:58:00,
2013-08-20 13:03:00,82.8,70.1,29.98,West,270,1.6,2.2,65,0.00,,,0.00,WUHU21636XXSP,2013-08-20 18:03:00,
2013-08-20 13:08:00,82.7,69.6,29.97,West,270,1.2,1.6,64,0.00,,,0.00,WUHU21636XXSP,2013-08-20 18:08:00,
2013-08-20 13:13:00,82.5,69.4,29.98,ESE,107,9.0,17.4,64,0.00,,,0.00,WUHU21636XXSP,2013-08-20 18:13:00,
2013-08-20 13:18:00,82.5,68.9,29.98,NNW,337,6.6,17.4,63,0.00,,,0.00,WUHU21636XXSP,2013-08-20 18:18:00,
2013-08-20 13:23:00,82.8,69.7,29.97,NNW,337,6.2,14.2,64,0.00,,,0.00,WUHU21636XXSP,2013-08-20 18:23:00,
2013-08-20 13:28:00,83.3,70.1,29.97,WNW,292,0.0,6.2,64,0.00,,,0.00,WUHU21636XXSP,2013-08-20 18:28:00,
2013-08-20 13:33:00,83.5,70.3,29.97,ENE,67,0.0,0.0,64,0.00,,,0.00,WUHU21636XXSP,2013-08-20 18:33:00,
2013-08-20 13:38:00,83.7,70.0,29.97,ENE,67,0.0,2.6,63,0.00,,,0.00,WUHU21636XXSP,2013-08-20 18:38:00,
2013-08-20 13:43:00,83.5,69.8,29.97,WSW,247,7.6,7.6,63,0.00,,,0.00,WUHU21636XXSP,2013-08-20 18:43:00,
2013-08-20 13:48:00,83.7,69.5,29.97,WSW,247,0.0,7.6,62,0.00,,,0.00,WUHU21636XXSP,2013-08-20 18:48:00,
2013-08-20 13:53:00,83.5,69.8,29.97,NE,45,1.2,7.6,63,0.00,,,0.00,WUHU21636XXSP,2013-08-20 18:53:00,
2013-08-20 13:58:00,84.2,70.5,29.97,WSW,247,8.4,8.4,63,0.00,,,0.00,WUHU21636XXSP,2013-08-20 18:58:00,
2013-08-20 14:03:00,84.4,70.7,29.97,West,270,0.0,8.4,63,0.00,,,0.00,WUHU21636XXSP,2013-08-20 19:03:00,
2013-08-20 14:08:00,84.7,71.0,29.97,WSW,247,6.2,8.4,63,0.00,,,0.00,WUHU21636XXSP,2013-08-20 19:08:00,
2013-08-20 14:13:00,84.7,70.5,29.97,ENE,67,7.0,7.0,62,0.00,,,0.00,WUHU21636XXSP,2013-08-20 19:13:00,
2013-08-20 14:18:00,84.9,70.7,29.97,NNE,22,0.0,8.8,62,0.00,,,0.00,WUHU21636XXSP,2013-08-20 19:18:00,
2013-08-20 14:23:00,85.4,71.6,29.97,North,350,3.8,8.8,63,0.00,,,0.00,WUHU21636XXSP,2013-08-20 19:23:00,
2013-08-20 14:28:00,85.6,70.9,29.97,North,0,4.4,4.4,61,0.00,,,0.00,WUHU21636XXSP,2013-08-20 19:28:00,
2013-08-20 14:33:00,85.7,71.0,29.96,SE,135,3.4,4.4,61,0.00,,,0.00,WUHU21636XXSP,2013-08-20 19:33:00,
2013-08-20 14:38:00,85.7,71.0,29.96,SSW,202,5.2,5.2,61,0.00,,,0.00,WUHU21636XXSP,2013-08-20 19:38:00,
2013-08-20 14:43:00,85.9,71.2,29.96,ESE,112,0.0,5.2,61,0.00,,,0.00,WUHU21636XXSP,2013-08-20 19:43:00,
2013-08-20 14:48:00,85.9,71.2,29.96,NW,315,6.2,6.2,61,0.00,,,0.00,WUHU21636XXSP,2013-08-20 19:48:00,
2013-08-20 14:53:00,86.1,71.4,29.96,ESE,112,0.0,6.2,61,0.00,,,0.00,WUHU21636XXSP,2013-08-20 19:53:00,
2013-08-20 14:58:00,86.6,71.9,29.96,East,88,5.5,13.4,61,0.00,,,0.00,WUHU21636XXSP,2013-08-20 19:58:00,
2013-08-20 15:03:00,86.6,72.3,29.96,NE,37,4.8,13.4,62,0.00,,,0.00,WUHU21636XXSP,2013-08-20 20:03:00,
2013-08-20 15:08:00,86.6,71.9,29.96,WNW,292,4.0,5.2,61,0.00,,,0.00,WUHU21636XXSP,2013-08-20 20:08:00,
2013-08-20 15:13:00,86.6,71.9,29.95,NNW,337,6.2,10.2,61,0.00,,,0.00,WUHU21636XXSP,2013-08-20 20:13:00,
2013-08-20 15:18:00,87.0,71.3,29.95,WSW,247,8.0,10.2,59,0.00,,,0.00,WUHU21636XXSP,2013-08-20 20:18:00,
2013-08-20 15:23:00,86.8,71.1,29.94,NW,315,1.6,8.0,59,0.00,,,0.00,WUHU21636XXSP,2013-08-20 20:23:00,
2013-08-20 15:28:00,86.6,70.9,29.94,NW,315,4.8,8.0,59,0.00,,,0.00,WUHU21636XXSP,2013-08-20 20:28:00,
2013-08-20 15:33:00,86.6,71.4,29.95,South,180,7.0,7.0,60,0.00,,,0.00,WUHU21636XXSP,2013-08-20 20:33:00,
2013-08-20 15:38:00,86.3,71.6,29.95,West,270,5.8,9.2,61,0.00,,,0.00,WUHU21636XXSP,2013-08-20 20:38:00,
2013-08-20 15:43:00,86.1,70.9,29.94,West,270,0.0,9.2,60,0.00,,,0.00,WUHU21636XXSP,2013-08-20 20:43:00,
2013-08-20 15:48:00,86.6,71.4,29.95,NW,308,7.5,12.8,60,0.00,,,0.00,WUHU21636XXSP,2013-08-20 20:48:00,
2013-08-20 15:53:00,86.6,71.4,29.94,West,270,6.2,12.8,60,0.00,,,0.00,WUHU21636XXSP,2013-08-20 20:53:00,
2013-08-20 15:58:00,86.3,71.6,29.94,West,270,5.2,6.2,61,0.00,,,0.00,WUHU21636XXSP,2013-08-20 20:58:00,
2013-08-20 16:03:00,86.6,71.9,29.94,WNW,292,0.0,6.2,61,0.00,,,0.00,WUHU21636XXSP,2013-08-20 21:03:00,
2013-08-20 16:08:00,87.3,72.0,29.94,NW,315,4.8,5.2,60,0.00,,,0.00,WUHU21636XXSP,2013-08-20 21:08:00,
2013-08-20 16:13:00,87.3,72.0,29.94,West,270,0.0,4.8,60,0.00,,,0.00,WUHU21636XXSP,2013-08-20 21:13:00,
2013-08-20 16:18:00,86.8,71.1,29.94,NW,322,8.4,13.8,59,0.00,,,0.00,WUHU21636XXSP,2013-08-20 21:18:00,
2013-08-20 16:23:00,86.6,70.9,29.94,NW,310,10.0,15.2,59,0.00,,,0.00,WUHU21636XXSP,2013-08-20 21:23:00,
2013-08-20 16:28:00,86.6,71.4,29.94,NW,318,3.5,15.2,60,0.00,,,0.00,WUHU21636XXSP,2013-08-20 21:28:00,
2013-08-20 16:33:00,86.6,71.4,29.93,NNW,337,0.0,5.8,60,0.00,,,0.00,WUHU21636XXSP,2013-08-20 21:33:00,
2013-08-20 16:38:00,86.8,71.1,29.94,East,90,4.4,4.4,59,0.00,,,0.00,WUHU21636XXSP,2013-08-20 21:38:00,
2013-08-20 16:43:00,86.6,71.4,29.94,NW,315,6.2,6.2,60,0.00,,,0.00,WUHU21636XXSP,2013-08-20 21:43:00,
2013-08-20 16:48:00,86.6,71.4,29.94,WNW,292,11.6,11.6,60,0.00,,,0.00,WUHU21636XXSP,2013-08-20 21:48:00,
2013-08-20 16:53:00,86.3,71.1,29.94,SW,225,2.6,11.6,60,0.00,,,0.00,WUHU21636XXSP,2013-08-20 21:53:00,
2013-08-20 16:58:00,86.3,71.6,29.94,ESE,112,0.0,6.6,61,0.00,,,0.00,WUHU21636XXSP,2013-08-20 21:58:00,
2013-08-20 17:03:00,86.3,71.1,29.94,NNW,337,2.6,7.0,60,0.00,,,0.00,WUHU21636XXSP,2013-08-20 22:03:00,
2013-08-20 17:08:00,86.1,71.4,29.94,NE,45,4.8,15.2,61,0.00,,,0.00,WUHU21636XXSP,2013-08-20 22:08:00,
2013-08-20 17:13:00,86.1,70.9,29.94,SSW,202,0.0,15.2,60,0.00,,,0.00,WUHU21636XXSP,2013-08-20 22:13:00,
2013-08-20 17:18:00,85.9,70.7,29.94,West,270,0.0,4.0,60,0.00,,,0.00,WUHU21636XXSP,2013-08-20 22:18:00,
2013-08-20 17:23:00,85.9,71.2,29.94,West,270,0.0,4.0,61,0.00,,,0.00,WUHU21636XXSP,2013-08-20 22:23:00,
2013-08-20 17:28:00,85.7,71.4,29.94,NW,315,8.0,8.0,62,0.00,,,0.00,WUHU21636XXSP,2013-08-20 22:28:00,
2013-08-20 17:33:00,85.4,70.7,29.94,West,270,3.4,8.0,61,0.00,,,0.00,WUHU21636XXSP,2013-08-20 22:33:00,
2013-08-20 17:38:00,84.7,70.1,29.94,WNW,292,0.0,8.0,61,0.00,,,0.00,WUHU21636XXSP,2013-08-20 22:38:00,
2013-08-20 17:43:00,84.7,70.5,29.94,ENE,67,6.2,6.2,62,0.00,,,0.00,WUHU21636XXSP,2013-08-20 22:43:00,
2013-08-20 17:48:00,84.7,70.5,29.94,NNW,337,3.0,8.8,62,0.00,,,0.00,WUHU21636XXSP,2013-08-20 22:48:00,
2013-08-20 17:53:00,84.7,71.0,29.94,WNW,292,0.0,8.8,63,0.00,,,0.00,WUHU21636XXSP,2013-08-20 22:53:00,
2013-08-20 17:58:00,84.7,71.0,29.94,NNE,22,0.0,3.0,63,0.00,,,0.00,WUHU21636XXSP,2013-08-20 22:58:00,
2013-08-20 18:03:00,84.9,71.2,29.94,NNW,337,0.0,0.0,63,0.00,,,0.00,WUHU21636XXSP,2013-08-20 23:03:00,
2013-08-20 18:08:00,84.9,71.2,29.93,ENE,67,0.8,0.8,63,0.00,,,0.00,WUHU21636XXSP,2013-08-20 23:08:00,
2013-08-20 18:13:00,84.9,71.2,29.93,WSW,247,0.0,0.8,63,0.00,,,0.00,WUHU21636XXSP,2013-08-20 23:13:00,
2013-08-20 18:18:00,84.9,71.2,29.93,NW,324,2.9,3.0,63,0.00,,,0.00,WUHU21636XXSP,2013-08-20 23:18:00,
2013-08-20 18:23:00,84.6,70.9,29.93,SE,135,0.0,6.6,63,0.00,,,0.00,WUHU21636XXSP,2013-08-20 23:23:00,
2013-08-20 18:28:00,84.4,70.7,29.93,SSE,157,0.0,6.6,63,0.00,,,0.00,WUHU21636XXSP,2013-08-20 23:28:00,
2013-08-20 18:33:00,84.2,70.5,29.93,ENE,67,0.0,0.0,63,0.00,,,0.00,WUHU21636XXSP,2013-08-20 23:33:00,
2013-08-20 18:38:00,84.2,70.5,29.93,WNW,292,0.0,0.0,63,0.00,,,0.00,WUHU21636XXSP,2013-08-20 23:38:00,
2013-08-20 18:43:00,84.0,70.3,29.93,SW,225,0.0,0.0,63,0.00,,,0.00,WUHU21636XXSP,2013-08-20 23:43:00,
2013-08-20 18:48:00,84.0,70.3,29.93,NW,315,0.0,0.0,63,0.00,,,0.00,WUHU21636XXSP,2013-08-20 23:48:00,
2013-08-20 18:53:00,83.8,70.1,29.93,WNW,292,3.0,3.0,63,0.00,,,0.00,WUHU21636XXSP,2013-08-20 23:53:00,
2013-08-20 18:58:00,83.5,69.8,29.93,NNE,22,0.0,3.0,63,0.00,,,0.00,WUHU21636XXSP,2013-08-20 23:58:00,
2013-08-20 19:03:00,83.1,69.9,29.93,West,270,4.8,5.8,64,0.00,,,0.00,WUHU21636XXSP,2013-08-21 00:03:00,
2013-08-20 19:08:00,82.8,69.7,29.93,West,270,0.0,5.8,64,0.00,,,0.00,WUHU21636XXSP,2013-08-21 00:08:00,
2013-08-20 19:13:00,82.7,69.6,29.93,NW,315,0.0,0.0,64,0.00,,,0.00,WUHU21636XXSP,2013-08-21 00:13:00,
2013-08-20 19:18:00,82.5,69.8,29.93,WNW,292,0.8,0.8,65,0.00,,,0.00,WUHU21636XXSP,2013-08-21 00:18:00,
2013-08-20 19:23:00,82.3,69.6,29.93,WSW,247,0.0,0.8,65,0.00,,,0.00,WUHU21636XXSP,2013-08-21 00:23:00,
2013-08-20 19:28:00,82.1,69.4,29.93,WSW,247,0.0,0.0,65,0.00,,,0.00,WUHU21636XXSP,2013-08-21 00:28:00,
2013-08-20 19:33:00,82.1,69.4,29.94,WNW,292,0.0,0.0,65,0.00,,,0.00,WUHU21636XXSP,2013-08-21 00:33:00,
2013-08-20 19:38:00,81.9,69.2,29.94,NW,315,4.4,4.4,65,0.00,,,0.00,WUHU21636XXSP,2013-08-21 00:38:00,
2013-08-20 19:43:00,81.8,69.1,29.94,NW,315,0.0,4.4,65,0.00,,,0.00,WUHU21636XXSP,2013-08-21 00:43:00,
2013-08-20 19:48:00,81.6,68.9,29.94,WNW,292,0.0,4.4,65,0.00,,,0.00,WUHU21636XXSP,2013-08-21 00:48:00,
2013-08-20 19:53:00,81.6,69.4,29.94,WNW,292,0.0,0.0,66,0.00,,,0.00,WUHU21636XXSP,2013-08-21 00:53:00,
2013-08-20 19:58:00,81.2,68.5,29.94,WSW,247,0.0,0.0,65,0.00,,,0.00,WUHU21636XXSP,2013-08-21 00:58:00,
2013-08-20 20:03:00,81.2,68.5,29.94,North,0,0.0,0.0,65,0.00,,,0.00,WUHU21636XXSP,2013-08-21 01:03:00,
2013-08-20 20:08:00,81.0,68.8,29.94,North,0,0.0,0.0,66,0.00,,,0.00,WUHU21636XXSP,2013-08-21 01:08:00,
2013-08-20 20:13:00,81.0,68.8,29.94,NW,315,1.6,1.6,66,0.00,,,0.00,WUHU21636XXSP,2013-08-21 01:13:00,
2013-08-20 20:18:00,80.6,68.5,29.94,NW,315,0.0,1.6,66,0.00,,,0.00,WUHU21636XXSP,2013-08-21 01:18:00,
2013-08-20 20:19:00,80.6,68.5,29.94,NW,315,0.0,1.6,66,0.00,,,0.00,WUHU21636XXSP,2013-08-21 01:19:00,
2013-08-20 20:24:00,80.4,68.3,29.94,NW,315,0.0,0.0,66,0.00,,,0.00,WUHU21636XXSP,2013-08-21 01:24:00,
2013-08-20 20:29:00,80.0,69.2,29.94,NW,315,0.0,0.0,69,0.00,,,0.00,WUHU21636XXSP,2013-08-21 01:29:00,
2013-08-20 20:34:00,80.0,69.2,29.95,West,270,0.0,0.0,69,0.00,,,0.00,WUHU21636XXSP,2013-08-21 01:34:00,
2013-08-20 20:39:00,79.7,68.0,29.95,NW,315,0.0,0.0,67,0.00,,,0.00,WUHU21636XXSP,2013-08-21 01:39:00,
2013-08-20 20:44:00,79.5,68.2,29.95,NW,315,0.0,0.0,68,0.00,,,0.00,WUHU21636XXSP,2013-08-21 01:44:00,
2013-08-20 20:49:00,79.3,68.0,29.95,NW,315,0.0,0.0,68,0.00,,,0.00,WUHU21636XXSP,2013-08-21 01:49:00,
2013-08-20 20:54:00,79.3,68.0,29.96,NW,315,0.0,0.0,68,0.00,,,0.00,WUHU21636XXSP,2013-08-21 01:54:00,
2013-08-20 20:59:00,79.3,68.4,29.96,North,0,0.0,0.0,69,0.00,,,0.00,WUHU21636XXSP,2013-08-21 01:59:00,
2013-08-20 21:04:00,79.1,68.2,29.96,North,0,0.0,0.0,69,0.00,,,0.00,WUHU21636XXSP,2013-08-21 02:04:00,
2013-08-20 21:09:00,79.0,68.1,29.96,North,0,0.0,0.0,69,0.00,,,0.00,WUHU21636XXSP,2013-08-21 02:09:00,
2013-08-20 21:14:00,78.8,68.4,29.96,East,90,0.0,0.0,70,0.00,,,0.00,WUHU21636XXSP,2013-08-21 02:14:00,
2013-08-20 21:19:00,78.5,68.2,29.96,NW,315,0.0,0.0,70,0.00,,,0.00,WUHU21636XXSP,2013-08-21 02:19:00,
2013-08-20 21:24:00,78.3,68.0,29.96,North,0,0.0,0.0,70,0.00,,,0.00,WUHU21636XXSP,2013-08-21 02:24:00,
2013-08-20 21:29:00,78.3,68.0,29.96,North,0,0.0,0.0,70,0.00,,,0.00,WUHU21636XXSP,2013-08-21 02:29:00,
2013-08-20 21:34:00,78.3,68.0,29.96,NW,315,4.0,4.0,70,0.00,,,0.00,WUHU21636XXSP,2013-08-21 02:34:00,
2013-08-20 21:39:00,78.0,68.1,29.96,West,270,0.0,4.0,71,0.00,,,0.00,WUHU21636XXSP,2013-08-21 02:39:00,
2013-08-20 21:44:00,77.8,67.9,29.96,SSE,157,0.0,0.0,71,0.00,,,0.00,WUHU21636XXSP,2013-08-21 02:44:00,
2013-08-20 21:49:00,77.8,67.9,29.96,ESE,112,0.0,0.0,71,0.00,,,0.00,WUHU21636XXSP,2013-08-21 02:49:00,
2013-08-20 21:54:00,78.0,68.1,29.96,WSW,247,0.0,0.0,71,0.00,,,0.00,WUHU21636XXSP,2013-08-21 02:54:00,
2013-08-20 21:59:00,77.8,67.9,29.96,SW,225,0.0,0.0,71,0.00,,,0.00,WUHU21636XXSP,2013-08-21 02:59:00,
2013-08-20 22:04:00,77.8,68.6,29.96,South,180,0.0,0.0,73,0.00,,,0.00,WUHU21636XXSP,2013-08-21 03:04:00,
2013-08-20 22:09:00,77.4,67.8,29.96,West,270,0.0,0.0,72,0.00,,,0.00,WUHU21636XXSP,2013-08-21 03:09:00,
2013-08-20 22:14:00,77.4,67.8,29.96,NNE,22,0.0,0.0,72,0.00,,,0.00,WUHU21636XXSP,2013-08-21 03:14:00,
2013-08-20 22:19:00,77.4,67.8,29.96,NE,45,0.0,0.0,72,0.00,,,0.00,WUHU21636XXSP,2013-08-21 03:19:00,
2013-08-20 22:24:00,77.2,68.0,29.96,East,90,0.0,0.0,73,0.00,,,0.00,WUHU21636XXSP,2013-08-21 03:24:00,
2013-08-20 22:29:00,77.2,68.0,29.96,ENE,67,0.0,0.0,73,0.00,,,0.00,WUHU21636XXSP,2013-08-21 03:29:00,
2013-08-20 22:34:00,77.2,68.0,29.96,ENE,67,0.0,0.0,73,0.00,,,0.00,WUHU21636XXSP,2013-08-21 03:34:00,
2013-08-20 22:39:00,76.9,68.1,29.96,ENE,67,0.0,0.0,74,0.00,,,0.00,WUHU21636XXSP,2013-08-21 03:39:00,
2013-08-20 22:44:00,76.9,68.1,29.96,East,90,0.0,0.0,74,0.00,,,0.00,WUHU21636XXSP,2013-08-21 03:44:00,
2013-08-20 22:49:00,76.7,67.9,29.96,East,90,0.0,0.0,74,0.00,,,0.00,WUHU21636XXSP,2013-08-21 03:49:00,
2013-08-20 22:54:00,76.2,67.1,29.96,NW,315,0.0,0.0,73,0.00,,,0.00,WUHU21636XXSP,2013-08-21 03:54:00,
2013-08-20 22:59:00,76.4,67.7,29.96,NW,315,0.0,0.0,74,0.00,,,0.00,WUHU21636XXSP,2013-08-21 03:59:00,
2013-08-20 23:01:00,76.2,67.5,29.96,NW,315,0.0,0.0,74,0.00,,,0.00,WUHU21636XXSP,2013-08-21 04:01:00,
2013-08-20 23:06:00,76.2,67.5,29.96,NE,45,0.0,0.0,74,0.00,,,0.00,WUHU21636XXSP,2013-08-21 04:06:00,
2013-08-20 23:11:00,76.2,67.5,29.96,NNE,22,0.0,0.0,74,0.00,,,0.00,WUHU21636XXSP,2013-08-21 04:11:00,
2013-08-20 23:16:00,76.4,66.9,29.96,West,270,0.0,0.0,72,0.00,,,0.00,WUHU21636XXSP,2013-08-21 04:16:00,
2013-08-20 23:21:00,76.4,66.9,29.95,ESE,112,0.0,0.0,72,0.00,,,0.00,WUHU21636XXSP,2013-08-21 04:21:00,
2013-08-20 23:26:00,76.7,67.1,29.96,NNE,22,0.0,0.0,72,0.00,,,0.00,WUHU21636XXSP,2013-08-21 04:26:00,
2013-08-20 23:31:00,76.9,67.3,29.96,NNE,22,0.0,0.0,72,0.00,,,0.00,WUHU21636XXSP,2013-08-21 04:31:00,
2013-08-20 23:36:00,76.7,67.1,29.96,SSE,157,4.0,4.0,72,0.00,,,0.00,WUHU21636XXSP,2013-08-21 04:36:00,
2013-08-20 23:41:00,76.7,67.1,29.96,West,270,0.0,4.0,72,0.00,,,0.00,WUHU21636XXSP,2013-08-21 04:41:00,
2013-08-20 23:46:00,76.7,67.1,29.96,SE,135,0.0,0.0,72,0.00,,,0.00,WUHU21636XXSP,2013-08-21 04:46:00,
2013-08-20 23:51:00,76.7,66.7,29.96,West,270,4.8,4.8,71,0.00,,,0.00,WUHU21636XXSP,2013-08-21 04:51:00,
2013-08-20 23:56:00,76.9,67.3,29.96,SSE,157,4.0,4.8,72,0.00,,,0.00,WUHU21636XXSP,2013-08-21 04:56:00,